Location: Erp
(42.9417°N, 1.2009°E)
Time: 06:52:28
(UTC+00:00)

Envisat - Visible Passes

Search period start: 08 March 2026 00:00
Search period end: 18 March 2026 00:00
Orbit: 761 x 763 km, 98.4° (Epoch: 7 March)

Date Brightness Start Highest point End Pass type
(mag) Time Alt. Az. Time Alt. Az. Time Alt. Az.
8 Mar 5.8 02:14:52 10° NNE 02:15:21 13° NNE 02:15:21 13° NNE visible
8 Mar 5.2 03:54:38 10° NNW 03:55:28 13° NNW 03:55:28 13° NNW visible
9 Mar 5.1 03:16:05 10° N 03:17:21 17° N 03:17:21 17° N visible
10 Mar 5.4 02:38:05 10° NNE 02:39:14 17° NNE 02:39:14 17° NNE visible
10 Mar 5.2 04:19:02 10° NNW 04:19:22 11° NW 04:19:22 11° NW visible
11 Mar 5.8 02:00:35 10° NNE 02:01:06 13° NNE 02:01:06 13° NNE visible
11 Mar 5.0 03:39:48 10° N 03:41:14 17° NNW 03:41:14 17° NNW visible
12 Mar 5.0 03:01:30 10° N 03:03:07 20° N 03:03:07 20° N visible
13 Mar 5.4 02:23:40 10° NNE 02:25:00 18° NNE 02:25:00 18° NNE visible
13 Mar 5.0 04:03:50 10° NNW 04:05:07 14° NNW 04:05:07 14° NNW visible
14 Mar 5.9 01:46:24 10° NE 01:46:52 12° NE 01:46:52 12° NE visible
14 Mar 4.8 03:25:05 10° N 03:26:59 21° NNW 03:26:59 21° NNW visible
15 Mar 4.9 02:46:58 10° N 02:48:52 23° N 02:48:52 23° N visible
15 Mar 5.2 04:28:44 10° NW 04:29:00 10° NW 04:29:00 10° NW visible
16 Mar 5.4 02:09:19 10° NNE 02:10:45 18° NNE 02:10:45 18° NNE visible
16 Mar 4.8 03:48:54 10° NNW 03:50:53 19° NNW 03:50:53 19° NNW visible
17 Mar 6.0 01:32:23 10° NE 01:32:37 11° NE 01:32:37 11° NE visible
17 Mar 4.6 03:10:27 10° N 03:12:46 26° N 03:12:46 26° N visible
